アトラス彗星

C/2020 M5 ( ATLAS )

English version
Home page
Updated on January 23, 2021

---------------------------------------------------------------------

・ プロフィール

発見日 2020年6月30日
発見光度 19.4等
発見者 Asteroid Terrestrial-Impact Last Alert System (ATLAS) search program

・ 写真集

・ 軌道要素

Epoch 2021 Aug. 14.0 TT = JDT 2459440.5
T 2021 Aug. 19.88061 TT                                 Rudenko
q   3.0043545            (2000.0)            P               Q
z  +0.0000044      Peri.  126.33921     -0.59316160     -0.79328619
 +/-0.0000017      Node   352.09472     -0.28629110     +0.36725543
e   0.9999869      Incl.   93.22273     +0.75246045     -0.48561350
From 390 observations 2019 Aug. 10-2020 Nov. 14, mean residual 0".6.

・ 星図

・ 光度変化

        m1 = 5.5 + 5 logΔ + 15.0 log r

---------------------------------------------------------------------

軌道要素はM.P.E.C. 2020-W26に掲載されたものです。
星図はステラナビゲータ Ver.10 (アストロアーツ) で作成したものです。
光度グラフはComet for Windowsで作成したものです。

---------------------------------------------------------------------

Copyright(C) Seiichi Yoshida (comet@aerith.net). All rights reserved.